ITY411 EHEH-LIPE

Flight info

Callsign ITY411
Flight time 1h 22m
Altitude 39000
Route LNO Z283 RITAX M624 DIK M150 KRH DCT BATUB DCT TIRUL M738 NATAG DCT LORLO DCT UNTAD DCT ADOSA M738 BENUS
Aircraft A20N/M-SDE2E3FGHIRWXY/LB1

Departure

Time 2026-05-04 14:15
Airport Eindhoven Airport (EHEH)

Arrival

Time 2026-05-04 15:38
Airport Bologna Guglielmo Marconi Airport (LIPE)
Time Latitude Longitude Altitude Speed Heading
2026-05-04 13:51 51.45650 5.38818 63 ft 0 kts 125°
2026-05-04 14:05 51.45653 5.38812 66 ft 1 kts 125°
2026-05-04 14:06 51.45658 5.38802 64 ft 1 kts 125°
2026-05-04 14:06 51.45662 5.38792 66 ft 1 kts 125°
2026-05-04 14:06 51.45666 5.38782 69 ft 1 kts 125°
2026-05-04 14:06 51.45671 5.38772 66 ft 1 kts 125°
2026-05-04 14:07 51.45675 5.38762 65 ft 1 kts 125°
2026-05-04 14:07 51.45679 5.38752 63 ft 1 kts 114°
2026-05-04 14:07 51.45683 5.38738 64 ft 2 kts 97°
2026-05-04 14:07 51.45683 5.38714 66 ft 2 kts 74°
2026-05-04 14:08 51.45679 5.38695 74 ft 0 kts 55°
2026-05-04 14:08 51.45679 5.38696 74 ft 0 kts 55°
2026-05-04 14:11 51.45681 5.38699 74 ft 2 kts 52°
2026-05-04 14:11 51.45744 5.38776 70 ft 10 kts 33°
2026-05-04 14:11 51.45808 5.38852 68 ft 13 kts 39°
2026-05-04 14:12 51.45885 5.38931 67 ft 12 kts 33°
2026-05-04 14:12 51.45961 5.38981 74 ft 12 kts 343°
2026-05-04 14:12 51.46058 5.38783 72 ft 10 kts 304°
2026-05-04 14:13 51.46087 5.38669 78 ft 11 kts 255°
2026-05-04 14:13 51.46050 5.38611 82 ft 12 kts 214°
2026-05-04 14:13 51.45933 5.38484 77 ft 18 kts 214°
2026-05-04 14:13 51.45897 5.38443 71 ft 0 kts 216°
2026-05-04 14:14 51.45885 5.38429 77 ft 4 kts 216°
2026-05-04 14:14 51.45468 5.37959 84 ft 99 kts 215°
2026-05-04 14:14 51.44740 5.37151 93 ft 152 kts 214°
2026-05-04 14:15 51.43001 5.35177 1442 ft 131 kts 214°
2026-05-04 14:15 51.41428 5.33461 2564 ft 155 kts 211°
2026-05-04 14:16 51.39030 5.32276 3655 ft 203 kts 162°
2026-05-04 14:16 51.37851 5.33447 4761 ft 205 kts 133°
2026-05-04 14:17 51.36909 5.38218 5084 ft 238 kts 91°
2026-05-04 14:17 51.36923 5.40879 5194 ft 240 kts 88°
2026-05-04 14:17 51.36989 5.46257 5423 ft 240 kts 90°
2026-05-04 14:18 51.36976 5.48924 5567 ft 241 kts 93°
2026-05-04 14:18 51.36592 5.54367 6754 ft 261 kts 116°
2026-05-04 14:19 51.33687 5.57856 8424 ft 278 kts 170°
2026-05-04 14:19 51.31747 5.58173 9432 ft 283 kts 179°
2026-05-04 14:19 51.29761 5.58273 10363 ft 291 kts 179°
2026-05-04 14:19 51.27664 5.58430 10817 ft 315 kts 177°
2026-05-04 14:20 51.25454 5.58710 11232 ft 336 kts 175°
2026-05-04 14:20 51.23046 5.59114 12068 ft 342 kts 174°
2026-05-04 14:20 51.20669 5.59552 12968 ft 347 kts 174°
2026-05-04 14:21 51.15802 5.60470 14704 ft 354 kts 174°
2026-05-04 14:21 51.13348 5.60933 15561 ft 357 kts 174°
2026-05-04 14:21 51.10865 5.61400 16383 ft 360 kts 174°
2026-05-04 14:21 51.08363 5.61868 17161 ft 365 kts 174°
2026-05-04 14:22 51.05834 5.62340 17973 ft 367 kts 174°
2026-05-04 14:22 51.03284 5.62815 18741 ft 370 kts 174°
2026-05-04 14:22 51.00754 5.63286 19564 ft 372 kts 174°
2026-05-04 14:22 50.98145 5.63771 20412 ft 373 kts 174°
2026-05-04 14:23 50.92942 5.64023 22182 ft 379 kts 193°
2026-05-04 14:23 50.90404 5.62891 23104 ft 379 kts 203°
2026-05-04 14:23 50.87956 5.61283 23934 ft 384 kts 199°
2026-05-04 14:24 50.85365 5.60145 24499 ft 389 kts 192°
2026-05-04 14:24 50.82692 5.59502 25154 ft 389 kts 187°
2026-05-04 14:24 50.79981 5.59112 25693 ft 393 kts 183°
2026-05-04 14:24 50.77247 5.59520 26208 ft 398 kts 171°
2026-05-04 14:25 50.74524 5.60439 26720 ft 402 kts 170°
2026-05-04 14:25 50.69058 5.62386 27757 ft 405 kts 170°
2026-05-04 14:25 50.66297 5.63358 28216 ft 408 kts 170°
2026-05-04 14:26 50.63530 5.64320 28677 ft 410 kts 170°
2026-05-04 14:26 50.60700 5.65298 29121 ft 413 kts 171°
2026-05-04 14:26 50.57883 5.66266 29564 ft 415 kts 171°
2026-05-04 14:26 50.55058 5.67236 30010 ft 418 kts 171°
2026-05-04 14:27 50.52206 5.68214 30387 ft 420 kts 171°
2026-05-04 14:27 50.49345 5.69193 30766 ft 422 kts 171°
2026-05-04 14:27 50.46466 5.70179 31140 ft 424 kts 171°
2026-05-04 14:27 50.43582 5.71165 31611 ft 423 kts 171°
2026-05-04 14:28 50.40712 5.72146 32113 ft 422 kts 171°
2026-05-04 14:28 50.37850 5.73123 32623 ft 420 kts 171°
2026-05-04 14:28 50.35002 5.74093 33110 ft 418 kts 171°
2026-05-04 14:28 50.32159 5.75049 33568 ft 417 kts 173°
2026-05-04 14:29 50.26498 5.76884 34377 ft 415 kts 173°
2026-05-04 14:29 50.20804 5.78142 34979 ft 415 kts 177°
2026-05-04 14:30 50.17929 5.78681 35271 ft 416 kts 177°
2026-05-04 14:30 50.15063 5.79223 35567 ft 416 kts 177°
2026-05-04 14:30 50.09323 5.81025 36050 ft 425 kts 163°
2026-05-04 14:31 50.06641 5.83058 36308 ft 431 kts 153°
2026-05-04 14:31 50.02023 5.89179 36851 ft 440 kts 141°
2026-05-04 14:32 49.97634 5.95793 36994 ft 439 kts 141°
2026-05-04 14:32 49.93228 6.02375 37002 ft 438 kts 141°
2026-05-04 14:33 49.88832 6.08940 36996 ft 440 kts 139°
2026-05-04 14:33 49.85003 6.16420 36993 ft 447 kts 127°
2026-05-04 14:34 49.82032 6.24944 36994 ft 451 kts 122°
2026-05-04 14:34 49.79133 6.33536 36998 ft 450 kts 122°
2026-05-04 14:35 49.76213 6.42108 36993 ft 450 kts 122°
2026-05-04 14:35 49.73283 6.50669 36991 ft 450 kts 123°
2026-05-04 14:36 49.70354 6.59210 36982 ft 450 kts 122°
2026-05-04 14:36 49.67430 6.67731 36979 ft 450 kts 123°
2026-05-04 14:37 49.64491 6.76282 36961 ft 450 kts 122°
2026-05-04 14:37 49.61534 6.84891 36987 ft 451 kts 122°
2026-05-04 14:38 49.58580 6.93420 36988 ft 451 kts 122°
2026-05-04 14:38 49.55604 7.01956 37288 ft 453 kts 122°
2026-05-04 14:38 49.54114 7.06222 37575 ft 453 kts 122°
2026-05-04 14:39 49.52620 7.10488 37845 ft 452 kts 122°
2026-05-04 14:39 49.51128 7.14746 38156 ft 451 kts 122°
2026-05-04 14:39 49.49633 7.19003 38380 ft 452 kts 122°
2026-05-04 14:40 49.46641 7.27500 38798 ft 452 kts 122°
2026-05-04 14:40 49.45140 7.31752 38949 ft 453 kts 122°
2026-05-04 14:40 49.42135 7.40251 38998 ft 452 kts 122°
2026-05-04 14:41 49.39133 7.48712 38998 ft 451 kts 122°
2026-05-04 14:42 49.33111 7.65603 38980 ft 452 kts 123°
2026-05-04 14:42 49.30072 7.74088 38984 ft 452 kts 123°
2026-05-04 14:43 49.27556 7.81093 38980 ft 451 kts 123°
2026-05-04 14:43 49.24572 7.89375 38984 ft 451 kts 123°
2026-05-04 14:44 49.21540 7.97750 38986 ft 451 kts 123°
2026-05-04 14:44 49.18500 8.06127 38978 ft 450 kts 123°
2026-05-04 14:45 49.15456 8.14491 38976 ft 450 kts 123°
2026-05-04 14:45 49.12417 8.22819 38975 ft 450 kts 123°
2026-05-04 14:46 49.09362 8.31161 38969 ft 450 kts 123°
2026-05-04 14:46 49.06295 8.39494 38969 ft 450 kts 123°
2026-05-04 14:47 49.03241 8.47764 38965 ft 450 kts 123°
2026-05-04 14:47 48.99810 8.55741 38965 ft 445 kts 134°
2026-05-04 14:48 48.95439 8.62271 38962 ft 438 kts 146°
2026-05-04 14:48 48.90444 8.67509 38963 ft 436 kts 150°
2026-05-04 14:49 48.85415 8.72657 38962 ft 436 kts 150°
2026-05-04 14:49 48.80387 8.77800 38953 ft 436 kts 150°
2026-05-04 14:50 48.75481 8.82997 38958 ft 440 kts 142°
2026-05-04 14:50 48.73406 8.86422 38947 ft 446 kts 129°
2026-05-04 14:50 48.71858 8.90525 38955 ft 453 kts 116°
2026-05-04 14:51 48.70926 8.95110 38956 ft 459 kts 103°
2026-05-04 14:51 48.70665 8.99951 38957 ft 464 kts 90°
2026-05-04 14:51 48.69979 9.09536 38967 ft 455 kts 112°
2026-05-04 14:52 48.68679 9.13854 38958 ft 449 kts 126°
2026-05-04 14:52 48.66810 9.17574 38951 ft 442 kts 139°
2026-05-04 14:52 48.64462 9.20528 38967 ft 438 kts 152°
2026-05-04 14:52 48.61763 9.22586 38970 ft 432 kts 165°
2026-05-04 14:53 48.58828 9.23654 38969 ft 425 kts 178°
2026-05-04 14:53 48.55956 9.23672 38965 ft 420 kts 189°
2026-05-04 14:53 48.50131 9.22454 38956 ft 421 kts 183°
2026-05-04 14:54 48.47198 9.22871 38952 ft 427 kts 171°
2026-05-04 14:54 48.44368 9.24308 38949 ft 434 kts 159°
2026-05-04 14:54 48.38974 9.28468 38961 ft 437 kts 156°
2026-05-04 14:55 48.33585 9.32685 38959 ft 435 kts 157°
2026-05-04 14:55 48.28194 9.36772 38949 ft 434 kts 157°
2026-05-04 14:56 48.22782 9.40829 38958 ft 435 kts 157°
2026-05-04 14:56 48.17367 9.44876 38942 ft 436 kts 157°
2026-05-04 14:57 48.11915 9.48943 38957 ft 437 kts 157°
2026-05-04 14:57 48.06433 9.52829 38951 ft 433 kts 163°
2026-05-04 14:58 48.00790 9.56003 38945 ft 433 kts 163°
2026-05-04 14:58 47.95121 9.59188 38944 ft 433 kts 163°
2026-05-04 14:59 47.89491 9.62352 38941 ft 432 kts 163°
2026-05-04 15:00 47.81051 9.67080 38924 ft 432 kts 163°
2026-05-04 15:00 47.75431 9.70220 38938 ft 431 kts 163°
2026-05-04 15:01 47.66999 9.74909 38921 ft 432 kts 163°
2026-05-04 15:01 47.61365 9.78034 38930 ft 432 kts 163°
2026-05-04 15:02 47.55728 9.81156 38952 ft 433 kts 163°
2026-05-04 15:03 47.44107 9.87569 38964 ft 433 kts 163°
2026-05-04 15:03 47.39374 9.90174 38969 ft 434 kts 163°
2026-05-04 15:04 47.33709 9.93283 38976 ft 434 kts 163°
2026-05-04 15:04 47.28086 9.96363 39003 ft 435 kts 163°
2026-05-04 15:05 47.22394 9.99471 39016 ft 438 kts 163°
2026-05-04 15:05 47.16680 10.02587 39036 ft 438 kts 163°
2026-05-04 15:06 47.10974 10.05691 39050 ft 437 kts 163°
2026-05-04 15:07 47.02412 10.10335 39066 ft 437 kts 163°
2026-05-04 15:07 46.96697 10.13425 39079 ft 438 kts 163°
2026-05-04 15:08 46.90930 10.16538 39092 ft 439 kts 163°
2026-05-04 15:08 46.85201 10.19623 39073 ft 437 kts 164°
2026-05-04 15:09 46.79504 10.22685 39077 ft 438 kts 163°
2026-05-04 15:09 46.73767 10.25756 39105 ft 440 kts 163°
2026-05-04 15:10 46.65174 10.30350 39112 ft 440 kts 163°
2026-05-04 15:11 46.56536 10.34949 39114 ft 441 kts 163°
2026-05-04 15:11 46.50793 10.38000 39107 ft 439 kts 163°
2026-05-04 15:12 46.45076 10.41032 39117 ft 437 kts 164°
2026-05-04 15:12 46.39349 10.44056 39116 ft 438 kts 164°
2026-05-04 15:13 46.33632 10.47072 39102 ft 437 kts 164°
2026-05-04 15:13 46.27901 10.50087 39128 ft 440 kts 164°
2026-05-04 15:14 46.22160 10.53104 39125 ft 438 kts 164°
2026-05-04 15:14 46.16370 10.56138 39124 ft 439 kts 164°
2026-05-04 15:14 46.13502 10.57638 39001 ft 439 kts 164°
2026-05-04 15:15 46.10643 10.59133 38790 ft 435 kts 164°
2026-05-04 15:15 46.07809 10.60613 38264 ft 432 kts 164°
2026-05-04 15:15 46.04978 10.62088 37499 ft 433 kts 164°
2026-05-04 15:16 45.99302 10.65039 35982 ft 435 kts 163°
2026-05-04 15:16 45.96459 10.66515 35212 ft 435 kts 163°
2026-05-04 15:16 45.90745 10.69477 33730 ft 437 kts 163°
2026-05-04 15:17 45.87895 10.70953 33016 ft 434 kts 163°
2026-05-04 15:17 45.82212 10.73886 31388 ft 435 kts 162°
2026-05-04 15:17 45.79368 10.75353 30635 ft 434 kts 162°
2026-05-04 15:18 45.76533 10.76814 29981 ft 430 kts 162°
2026-05-04 15:18 45.73729 10.78259 29209 ft 427 kts 162°
2026-05-04 15:18 45.70944 10.79692 28435 ft 424 kts 162°
2026-05-04 15:19 45.65423 10.82530 26994 ft 418 kts 162°
2026-05-04 15:19 45.62687 10.83934 26245 ft 417 kts 162°
2026-05-04 15:19 45.57213 10.86737 24889 ft 413 kts 162°
2026-05-04 15:20 45.54523 10.88113 24422 ft 408 kts 162°
2026-05-04 15:20 45.51853 10.89477 24171 ft 409 kts 162°
2026-05-04 15:20 45.49156 10.90852 23797 ft 414 kts 162°
2026-05-04 15:20 45.46429 10.92241 23088 ft 418 kts 162°
2026-05-04 15:21 45.43710 10.93626 22504 ft 413 kts 162°
2026-05-04 15:21 45.41016 10.94999 21902 ft 408 kts 162°
2026-05-04 15:21 45.35752 10.97675 20702 ft 398 kts 162°
2026-05-04 15:22 45.33157 10.98993 20117 ft 394 kts 162°
2026-05-04 15:22 45.30590 11.00295 19535 ft 390 kts 162°
2026-05-04 15:22 45.25529 11.02856 18365 ft 383 kts 162°
2026-05-04 15:23 45.23025 11.04123 17762 ft 378 kts 162°
2026-05-04 15:23 45.20568 11.05365 17198 ft 372 kts 162°
2026-05-04 15:23 45.18144 11.06588 16638 ft 367 kts 162°
2026-05-04 15:23 45.15758 11.07789 16084 ft 362 kts 162°
2026-05-04 15:24 45.11067 11.10149 14996 ft 353 kts 162°
2026-05-04 15:24 45.06494 11.12446 13933 ft 345 kts 162°
2026-05-04 15:25 45.04238 11.13578 13036 ft 348 kts 162°
2026-05-04 15:25 45.01926 11.14737 12057 ft 355 kts 162°
2026-05-04 15:25 44.99574 11.15916 11389 ft 352 kts 162°
2026-05-04 15:26 44.95121 11.18151 10806 ft 327 kts 162°
2026-05-04 15:26 44.93008 11.19209 10560 ft 322 kts 162°
2026-05-04 15:26 44.88739 11.20836 10337 ft 308 kts 172°
2026-05-04 15:27 44.86671 11.21309 10225 ft 295 kts 172°
2026-05-04 15:27 44.82773 11.22233 9720 ft 278 kts 171°
2026-05-04 15:28 44.78977 11.23122 8875 ft 274 kts 173°
2026-05-04 15:28 44.77085 11.23162 8507 ft 271 kts 186°
2026-05-04 15:28 44.73485 11.21849 7794 ft 266 kts 196°
2026-05-04 15:29 44.71728 11.21077 7488 ft 262 kts 202°
2026-05-04 15:30 44.70381 11.12456 5717 ft 276 kts 296°
2026-05-04 15:30 44.73087 11.05576 4806 ft 256 kts 292°
2026-05-04 15:31 44.72844 11.00857 4563 ft 250 kts 233°
2026-05-04 15:31 44.71573 10.99250 4442 ft 248 kts 207°
2026-05-04 15:32 44.66785 10.96806 3986 ft 240 kts 174°
2026-05-04 15:32 44.64151 10.99437 3790 ft 241 kts 122°
2026-05-04 15:33 44.62601 11.03609 3569 ft 243 kts 116°
2026-05-04 15:34 44.60343 11.09907 2883 ft 230 kts 115°
2026-05-04 15:34 44.59652 11.11832 2593 ft 213 kts 115°
2026-05-04 15:34 44.58431 11.15236 2098 ft 177 kts 115°
2026-05-04 15:35 44.57417 11.18067 1659 ft 151 kts 115°
2026-05-04 15:35 44.56961 11.19341 1450 ft 142 kts 114°
2026-05-04 15:35 44.56520 11.20572 1266 ft 143 kts 114°
2026-05-04 15:36 44.55795 11.22573 987 ft 129 kts 113°
2026-05-04 15:36 44.55398 11.23714 833 ft 131 kts 113°
2026-05-04 15:36 44.55000 11.24837 626 ft 128 kts 114°
2026-05-04 15:37 44.54599 11.25961 422 ft 126 kts 116°
2026-05-04 15:37 44.54177 11.27150 269 ft 140 kts 117°
2026-05-04 15:37 44.53771 11.28261 134 ft 125 kts 118°
2026-05-04 15:37 44.53482 11.29029 132 ft 67 kts 116°
2026-05-04 15:38 44.53335 11.29441 136 ft 37 kts 120°
2026-05-04 15:38 44.53204 11.29642 135 ft 20 kts 144°
2026-05-04 15:38 44.53123 11.29723 132 ft 14 kts 144°
2026-05-04 15:38 44.53043 11.29769 127 ft 4 kts 210°
2026-05-04 15:39 44.53041 11.29715 127 ft 7 kts 289°
2026-05-04 15:39 44.53066 11.29640 132 ft 10 kts 296°
2026-05-04 15:39 44.53143 11.29435 135 ft 14 kts 297°
2026-05-04 15:40 44.53182 11.29332 136 ft 14 kts 298°
2026-05-04 15:40 44.53200 11.29203 136 ft 14 kts 230°
2026-05-04 15:40 44.53173 11.29187 135 ft 4 kts 201°
2026-05-04 15:40 44.53129 11.29157 134 ft 10 kts 207°
2026-05-04 15:41 44.53062 11.29107 133 ft 10 kts 208°
2026-05-04 15:41 44.53011 11.29087 132 ft 6 kts 158°
2026-05-04 15:41 44.52990 11.29129 132 ft 5 kts 117°
2026-05-04 15:41 44.52983 11.29147 132 ft 0 kts 119°